Regional Weather Roundup
Issued by NWS Kansas City/Pleasant Hill, MO

Home | Current Version | Previous Version | Graphics & Text | Print | Product List | Glossary Off
Versions: 1 2 3 4 5 6 7 8 9 10 11 12 13 14 15 16 17 18 19 20 21 22 23 24 25 26 27 28

000
ASUS43 KEAX 280810
RWREAX

WEATHER ROUNDUP FOR EASTERN KANSAS AND NORTHWEST MISSOURI
NATIONAL WEATHER SERVICE KANSAS CITY/PLEASANT HILL MO
300 AM CDT WED SEP 28 2016

KSZ040-057-103>105-MOZ028-029-037-043-280900-
...KANSAS CITY METROPOLITAN AREA...

CITY           SKY/WX    TMP DP  RH WIND       PRES   REMARKS
K.C. INTL      CLEAR     60  53  77 W7        29.87R
K.C. DOWNTOWN  CLEAR     61  56  83 CALM      29.86S
LEES SUMMIT    CLEAR     60  55  83 W7        29.87S
OLATHE - IXD   CLEAR     61  55  81 W6        29.88S
OLATHE - OJC   CLEAR     62  55  77 W3        29.88R
LAWRENCE       CLEAR     54  54 100 NW6       29.88S

$$

MOZ001>008-011>017-020>025-030>033-038>040-044>046-053-054-280900-
...NORTHERN AND CENTRAL MISSOURI...

CITY           SKY/WX    TMP DP  RH WIND       PRES   REMARKS
ST. JOSEPH     CLEAR     53  51  93 N3        29.87S
MOSBY          SUNNY     54  54 100 CALM      29.86S
WHITEMAN AFB   CLEAR     60  57  89 W5        29.84S
CLINTON        CLEAR     61  54  77 SW7       29.87F
SEDALIA        PTCLDY    63  54  72 W7        29.86S
WARSAW         NOT AVBL
CHILLICOTHE      N/A     55  51  86 N6        29.86S
KIRKSVILLE     PTCLDY    57  47  69 N8        29.84R

$$

MOZ041-047>049-056>058-063>065-088>090-097-280900-
...EASTERN AND SOUTHERN MISSOURI...

CITY           SKY/WX    TMP DP  RH WIND       PRES   REMARKS
ST. LOUIS INTL PTCLDY    64  53  67 SW9       29.80F
SPIRIT OF STL  CLEAR     63  54  72 SW9       29.79F
COLUMBIA       CLEAR     61  55  81 W10       29.83F
JEFFERSON CITY CLOUDY    60  55  83 CALM      29.83F
ROLLA          CLEAR     57  51  80 SW12      29.85F
OSAGE BEACH    CLEAR     63  51  65 SW7       29.87F
SPRINGFIELD    CLEAR     61  48  62 SW9       29.92F
BRANSON        PTCLDY    63  46  55 SW8       29.96F
JOPLIN         CLEAR     65  50  58 SW16G22   29.93F
WEST PLAINS    CLEAR     57  49  74 SW6       29.94F

$$

IAZ060-094-KSZ022-034>040-054-083-096-NEZ052-066-093-280900-
...KANSAS...SOUTHEAST NEBRASKA AND IOWA...

CITY           SKY/WX    TMP DP  RH WIND       PRES   REMARKS
TOPEKA         CLEAR     58  54  86 W3        29.88S
MANHATTAN      CLEAR     55  53  93 CALM      29.91R
EMPORIA        CLEAR     64  55  72 W6        29.89S
CHANUTE        CLEAR     61  53  75 SW9       29.89F
WICHITA        CLEAR     58  54  86 SW7       29.92S
OMAHA          CLEAR     53  48  83 N9        29.94R
LINCOLN        CLEAR     54  49  83 N9        29.96R
FALLS CITY     CLEAR     53  51  93 NW7       29.89R
LAMONI         CLEAR     55  45  68 N7        29.88R
DES MOINES     CLOUDY    58  42  55 N9        29.90R

$$





USA.gov is the U.S. government's official web portal to all federal, state and local government web resources and services.